Location: Belfast
(54.5830°N, 5.9330°W)
Time: 23:29:59
(UTC+01:00)

ISS - Pass Details

Date: 22 May 2018
Orbit: 402 x 407 km, 51.6° (Epoch: 24 May)

Event Time Altitude Azimuth Distance (km) Brightness Sun altitude
Rises 00:25:09 0° 249° (WSW) 2,317 -0.1 -14.2°
Reaches altitude 10° 00:27:16 10° 242° (WSW) 1,458 -1.2 -14.2°
Maximum altitude 00:30:24 44° 169° (S) 571 -3.6 -14.3°
Drops below altitude 10° 00:33:32 10° 96° (E) 1,459 -1.2 -14.4°
Sets 00:35:40 0° 90° (E) 2,319 -0.1 -14.5°
